星链-31058 (STARLINK-31058 )

导读

STARLINK-31058是美国SpaceX星链计划中的卫星,于2023年12月29日发射,隶属于美国太空探索技术公司打造的星链星座网络。星链星座旨在为全球用户提供高速互联网接入服务,该卫星入轨后承担卫星通信业务,进一步扩充星链星座的服务覆盖范围与容量。

Basic Information
目录编号:
58677
目录名称:
STARLINK-31058
国际标识:
2023-211L
轨道中心:
EARTH
卫星名称:
星链-31058
卫星全名:
星链-31058 (STARLINK-31058 )
卫星状态:
在轨 (已飞行902 天)
发射日期:
2023-12-29 UTC
国别 :
美国 (US)
星等 :
--
Orbit Information
数据来源 国际轨道数据 AOE轨道数据
星历时间 2026-06-17T06:09:50+0800
1天前
查看轨道信息
2026-06-17T06:00:00+0800
1天前
查看轨道信息
半长轴 6861.18km 6861.213km
偏心率 0.0001546 0.0003067
轨道倾角 43.003° 43.008°
近地点辐角 273.594° 231.905°
升交点赤经 244.646° 244.686°
平近点角 86.473° 90.567°
近地点 481.982km 480.971km
远地点 484.104km 485.181km
周期 94.267分钟 94.267分钟
每日圈数 15.275823 15.275711
Detailed Information
固有亮度:
5
最大亮度:
0.3
卫星平台:
Starlink v2.0 mini
覆盖范围:
全球
运营商:
太空探索技术公司
运营商所在国:
美国
制造商(研发单位):
太空探索技术公司
制造商所在国:
美国
使用方式:
暂无
Satellite Introduction
星链(Starlink)计划是由太空探索技术公司(SpaceX)提出的一个巨型低轨卫星互联网星座项目,计划在2019年至2024年间在太空搭建由约1.2万颗卫星组成的“星链”网络,其中1584颗将部署在地球上空550千米处的近地轨道,并从2020年开始工作。该卫星仍在工作。
2D Orbit Map
3D Orbit Map
Orbit Altitude Analysis Chart
Orbit Inclination Analysis Chart
Orbit Comprehensive Analysis Chart
View Comprehensive Chart